START_TIME,STEP,MOV.,M34,t_acc.,L5,t_acc.,L18,t_acc.,L14,t_acc.
1979-07-24 18:00:24.160 ,0,1,0.,12.0,0.,12.0,0.,12.0,0.,12.0
1979-07-24 18:00:36.160 ,0,1,0.,12.0,0.,12.0,0.,12.0,0.,12.0
1979-07-24 18:00:48.160 ,3,1,0.,12.0,0.,12.0,0.,12.0,0.,12.0
1979-07-24 18:01:00.160 ,3,1,0.,12.0,0.,12.0,0.,12.0,0.,12.0
1979-07-24 18:01:12.160 ,7,1,0.,12.0,0.,12.0,0.,12.0,0.,12.0
1979-07-24 18:01:24.160 ,7,1,0.,12.0,0.,12.0,0.,12.0,0.,12.0
1979-07-24 18:01:36.160 ,4,1,0.,12.0,0.,12.0,0.,12.0,0.,12.0
1979-07-24 18:01:48.160 ,4,1,0.,12.0,0.,12.0,0.,12.0,0.,12.0
1979-07-24 18:02:00.160 ,0,1,0.,12.0,0.,12.0,0.,12.0,0.,12.0
1979-07-24 18:02:12.160 ,0,1,0.,12.0,0.,12.0,0.,12.0,0.,12.0
1979-07-24 18:02:24.160 ,3,1,0.,12.0,0.,12.0,0.,12.0,0.,12.0
1979-07-24 18:02:36.160 ,3,1,0.,12.0,0.,12.0,0.,12.0,0.,12.0
1979-07-24 18:02:48.160 ,7,1,0.,12.0,0.,12.0,0.,12.0,0.,12.0
1979-07-24 18:03:00.160 ,7,1,0.,12.0,0.,12.0,0.,12.0,0.,12.0
1979-07-24 18:03:12.160 ,4,1,0.,12.0,0.,12.0,0.,12.0,0.,12.0
1979-07-24 18:03:24.160 ,4,1,0.,12.0,0.,12.0,0.,12.0,0.,12.0
1979-07-24 18:03:36.160 ,0,1,0.,12.0,0.,12.0,0.,12.0,0.,12.0
1979-07-24 18:03:48.160 ,0,1,0.,12.0,0.,12.0,0.,12.0,0.,12.0
1979-07-24 18:04:00.160 ,3,1,0.,12.0,0.,12.0,0.,12.0,0.,12.0
1979-07-24 18:04:12.160 ,3,1,0.,12.0,0.,12.0,0.,12.0,0.,12.0
1979-07-24 18:04:24.160 ,7,1,0.,12.0,0.,12.0,0.,12.0,0.,12.0
1979-07-24 18:04:36.160 ,7,1,0.,12.0,0.,12.0,0.,12.0,0.,12.0
1979-07-24 18:04:48.160 ,4,1,0.,12.0,0.,12.0,0.,12.0,0.,12.0
1979-07-24 18:05:00.160 ,4,1,0.,12.0,0.,12.0,0.,12.0,0.,12.0
1979-07-24 18:05:12.160 ,0,1,0.,12.0,0.,12.0,0.,12.0,0.,12.0
1979-07-24 18:05:24.160 ,0,1,0.,12.0,0.,12.0,0.,12.0,0.,12.0
1979-07-24 18:05:36.160 ,0,0,0.,12.0,0.,12.0,0.,12.0,0.,12.0
1979-07-24 18:05:48.160 ,0,0,0.,12.0,0.,12.0,0.,12.0,0.,12.0
1979-07-24 18:06:00.160 ,0,0,0.,12.0,0.,12.0,0.,12.0,0.,12.0
1979-07-24 18:06:12.160 ,0,0,0.,12.0,0.,12.0,0.,12.0,0.,12.0
1979-07-24 18:06:24.160 ,5,1,0.,12.0,0.,12.0,0.,12.0,0.,12.0
1979-07-24 18:06:36.160 ,5,1,0.,12.0,0.,12.0,0.,12.0,0.,12.0
1979-07-24 18:06:48.160 ,5,0,0.,12.0,0.,12.0,0.,12.0,0.,12.0
1979-07-24 18:07:00.160 ,5,0,0.,12.0,0.,12.0,0.,12.0,0.,12.0
1979-07-24 18:07:12.160 ,4,1,0.,12.0,0.,12.0,0.,12.0,0.,12.0
1979-07-24 18:07:24.160 ,4,1,0.,12.0,0.,12.0,0.,12.0,0.,12.0
1979-07-24 18:07:36.160 ,4,0,0.,12.0,0.,12.0,0.,12.0,0.,12.0
1979-07-24 18:07:48.160 ,4,0,0.,12.0,0.,12.0,0.,12.0,0.,12.0
1979-07-24 18:08:00.160 ,3,1,0.,12.0,0.,12.0,0.,12.0,0.,12.0
1979-07-24 18:08:12.160 ,3,1,0.,12.0,0.,12.0,0.,12.0,0.,12.0
1979-07-24 18:08:24.160 ,3,0,0.,12.0,0.,12.0,0.,12.0,0.,12.0
1979-07-24 18:08:36.160 ,3,0,0.,12.0,0.,12.0,0.,12.0,0.,12.0
1979-07-24 18:08:48.160 ,2,1,0.,12.0,0.,12.0,0.,12.0,0.,12.0
1979-07-24 18:09:00.160 ,2,1,0.,12.0,0.,12.0,0.,12.0,0.,12.0
1979-07-24 18:09:12.160 ,2,0,0.,12.0,0.,12.0,0.,12.0,0.,12.0
1979-07-24 18:09:24.160 ,2,0,0.,12.0,0.,12.0,0.,12.0,0.,12.0
1979-07-24 18:09:36.160 ,1,1,0.,12.0,0.,12.0,0.,12.0,0.,12.0
1979-07-24 18:09:48.160 ,1,1,0.,12.0,0.,12.0,0.,12.0,0.,12.0
1979-07-24 18:10:00.160 ,1,0,0.,12.0,0.,12.0,0.,12.0,0.,12.0
1979-07-24 18:10:12.160 ,1,0,0.,12.0,0.,12.0,0.,12.0,0.,12.0
1979-07-24 18:10:24.160 ,0,1,0.,12.0,0.,12.0,0.,12.0,0.,12.0
1979-07-24 18:10:36.160 ,0,1,0.,12.0,0.,12.0,0.,12.0,0.,12.0
1979-07-24 18:10:48.160 ,0,0,0.,12.0,0.,12.0,0.,12.0,0.,12.0
1979-07-24 18:11:00.160 ,0,0,0.,12.0,0.,12.0,0.,12.0,0.,12.0
1979-07-24 18:11:12.160 ,0,1,0.,12.0,0.,12.0,0.,12.0,0.,12.0
1979-07-24 18:11:24.160 ,0,1,0.,12.0,0.,12.0,0.,12.0,0.,12.0
1979-07-24 18:11:36.160 ,0,0,0.,12.0,0.,12.0,0.,12.0,0.,12.0
1979-07-24 18:11:48.160 ,0,0,0.,12.0,0.,12.0,0.,12.0,0.,12.0
1979-07-24 18:12:00.160 ,1,1,0.,12.0,0.,12.0,0.,12.0,0.,12.0
1979-07-24 18:12:12.160 ,1,1,0.,12.0,0.,12.0,0.,12.0,0.,12.0
1979-07-24 18:12:24.160 ,1,0,0.,12.0,0.,12.0,0.,12.0,0.,12.0
1979-07-24 18:12:36.160 ,1,0,0.,12.0,0.,12.0,0.,12.0,0.,12.0
1979-07-24 18:12:48.160 ,2,1,0.,12.0,0.,12.0,0.,12.0,0.,12.0
1979-07-24 18:13:00.160 ,2,1,0.,12.0,0.,12.0,0.,12.0,0.,12.0
1979-07-24 18:13:12.160 ,2,0,0.,12.0,0.,12.0,0.,12.0,0.,12.0
1979-07-24 18:13:24.160 ,2,0,0.,12.0,0.,12.0,0.,12.0,0.,12.0
1979-07-24 18:13:36.160 ,3,1,0.,12.0,0.,12.0,0.,12.0,0.,12.0
1979-07-24 18:13:48.160 ,3,1,0.,12.0,0.,12.0,0.,12.0,0.,12.0
1979-07-24 18:14:00.160 ,3,0,0.,12.0,0.,12.0,0.,12.0,0.,12.0
1979-07-24 18:14:12.160 ,3,0,0.,12.0,0.,12.0,0.,12.0,0.,12.0
1979-07-24 18:14:24.160 ,4,1,0.,12.0,0.,12.0,0.,12.0,0.,12.0
1979-07-24 18:14:36.160 ,4,1,0.,12.0,0.,12.0,0.,12.0,0.,12.0
1979-07-24 18:14:48.160 ,4,0,0.,12.0,0.,12.0,0.,12.0,0.,12.0
1979-07-24 18:15:00.160 ,4,0,0.,12.0,0.,12.0,0.,12.0,0.,12.0
1979-07-24 18:15:12.160 ,5,1,0.,12.0,0.,12.0,0.,12.0,0.,12.0
1979-07-24 18:15:24.160 ,5,1,0.,12.0,0.,12.0,0.,12.0,0.,12.0
1979-07-24 18:15:36.160 ,5,0,0.,12.0,0.,12.0,0.,12.0,0.,12.0
1979-07-24 18:15:48.160 ,5,0,0.,12.0,0.,12.0,0.,12.0,0.,12.0
1979-07-24 18:16:00.160 ,6,1,0.,12.0,0.,12.0,0.,12.0,0.,12.0
1979-07-24 18:16:12.160 ,6,1,0.,12.0,0.,12.0,0.,12.0,0.,12.0
1979-07-24 18:16:24.160 ,6,0,0.,12.0,0.,12.0,0.,12.0,0.,12.0
1979-07-24 18:16:36.160 ,6,0,0.,12.0,0.,12.0,0.,12.0,0.,12.0
1979-07-24 18:16:48.160 ,7,1,0.,12.0,0.,12.0,0.,12.0,0.,12.0
1979-07-24 18:17:00.160 ,7,1,0.,12.0,0.,12.0,0.,12.0,0.,12.0
1979-07-24 18:17:12.160 ,7,0,0.,12.0,0.,12.0,0.,12.0,0.,12.0
1979-07-24 18:17:24.160 ,7,0,0.,12.0,0.,12.0,0.,12.0,0.,12.0
1979-07-24 18:17:36.160 ,7,1,0.,12.0,0.,12.0,0.,12.0,0.,12.0
1979-07-24 18:17:48.160 ,7,1,0.,12.0,0.,12.0,0.,12.0,0.,12.0
1979-07-24 18:18:00.160 ,7,0,0.,12.0,0.,12.0,0.,12.0,0.,12.0
1979-07-24 18:18:12.160 ,7,0,0.,12.0,0.,12.0,0.,12.0,0.,12.0
1979-07-24 18:18:24.160 ,6,1,0.,12.0,0.,12.0,0.,12.0,0.,12.0
1979-07-24 18:18:36.160 ,6,1,0.,12.0,0.,12.0,0.,12.0,0.,12.0
1979-07-24 18:18:48.160 ,6,0,0.,12.0,0.,12.0,0.,12.0,0.,12.0
1979-07-24 18:19:00.160 ,6,0,0.,12.0,0.,12.0,0.,12.0,0.,12.0
1979-07-24 18:19:12.160 ,5,1,0.,12.0,0.,12.0,0.,12.0,0.,12.0
1979-07-24 18:19:24.160 ,5,1,0.,12.0,0.,12.0,0.,12.0,0.,12.0
1979-07-24 18:19:36.160 ,5,0,0.,12.0,0.,12.0,0.,12.0,0.,12.0
1979-07-24 18:19:48.160 ,5,0,0.,12.0,0.,12.0,0.,12.0,0.,12.0
1979-07-24 18:20:00.160 ,4,1,0.,12.0,0.,12.0,0.,12.0,0.,12.0
1979-07-24 18:20:12.160 ,4,1,0.,12.0,0.,12.0,0.,12.0,0.,12.0
1979-07-24 18:20:24.160 ,4,0,0.,12.0,0.,12.0,0.,12.0,0.,12.0
1979-07-24 18:20:36.160 ,4,0,0.,12.0,0.,12.0,0.,12.0,0.,12.0
1979-07-24 18:20:48.160 ,3,1,0.,12.0,0.,12.0,0.,12.0,0.,12.0
1979-07-24 18:21:00.160 ,3,1,0.,12.0,0.,12.0,0.,12.0,0.,12.0
1979-07-24 18:21:12.160 ,3,0,0.,12.0,0.,12.0,0.,12.0,0.,12.0
1979-07-24 18:21:24.160 ,3,0,0.,12.0,0.,12.0,0.,12.0,0.,12.0
1979-07-24 18:21:36.160 ,2,1,0.,12.0,0.,12.0,0.,12.0,0.,12.0
1979-07-24 18:21:48.160 ,2,1,0.,12.0,0.,12.0,0.,12.0,0.,12.0
1979-07-24 18:22:00.160 ,2,0,0.,12.0,0.,12.0,0.,12.0,0.,12.0
1979-07-24 18:22:12.160 ,2,0,0.,12.0,0.,12.0,0.,12.0,0.,12.0
1979-07-24 18:22:24.160 ,1,1,0.,12.0,0.,12.0,0.,12.0,0.,12.0
1979-07-24 18:22:36.160 ,1,1,0.,12.0,0.,12.0,0.,12.0,0.,12.0
1979-07-24 18:22:48.160 ,1,0,0.,12.0,0.,12.0,0.,12.0,0.,12.0
1979-07-24 18:23:00.160 ,1,0,0.,12.0,0.,12.0,0.,12.0,0.,12.0
1979-07-24 18:23:12.160 ,0,1,0.,12.0,0.,12.0,0.,12.0,0.,12.0
1979-07-24 18:23:24.160 ,0,1,0.,12.0,0.,12.0,0.,12.0,0.,12.0
1979-07-24 18:23:36.160 ,0,0,0.,12.0,0.,12.0,0.,12.0,0.,12.0
1979-07-24 18:23:48.160 ,0,0,0.,12.0,0.,12.0,0.,12.0,0.,12.0
1979-07-24 18:24:00.160 ,0,1,0.,12.0,0.,12.0,0.,12.0,0.,12.0
1979-07-24 18:24:12.160 ,0,1,0.,12.0,0.,12.0,0.,12.0,0.,12.0
1979-07-24 18:24:24.160 ,0,0,0.,12.0,0.,12.0,0.,12.0,0.,12.0
1979-07-24 18:24:36.160 ,0,0,0.,12.0,0.,12.0,0.,12.0,0.,12.0
1979-07-24 18:24:48.160 ,1,1,0.,12.0,0.,12.0,0.,12.0,0.,12.0
1979-07-24 18:25:00.160 ,1,1,0.,12.0,0.,12.0,0.,12.0,0.,12.0
1979-07-24 18:25:12.160 ,1,0,0.,12.0,0.,12.0,0.,12.0,0.,12.0
1979-07-24 18:25:24.160 ,1,0,0.,12.0,0.,12.0,0.,12.0,0.,12.0
1979-07-24 18:25:36.160 ,2,1,0.,12.0,0.,12.0,0.,12.0,0.,12.0
1979-07-24 18:25:48.160 ,2,1,0.,12.0,0.,12.0,0.,12.0,0.,12.0
1979-07-24 18:26:00.160 ,2,0,0.,12.0,0.,12.0,0.,12.0,0.,12.0
1979-07-24 18:26:12.160 ,2,0,0.,12.0,0.,12.0,0.,12.0,0.,12.0
1979-07-24 18:26:24.160 ,3,1,0.,12.0,0.,12.0,0.,12.0,0.,12.0
1979-07-24 18:26:36.160 ,3,1,0.,12.0,0.,12.0,0.,12.0,0.,12.0
1979-07-24 18:26:48.160 ,3,0,0.,12.0,0.,12.0,0.,12.0,0.,12.0
1979-07-24 18:27:00.160 ,3,0,0.,12.0,0.,12.0,0.,12.0,0.,12.0
1979-07-24 18:27:12.160 ,4,1,0.,12.0,0.,12.0,0.,12.0,0.,12.0
1979-07-24 18:27:24.160 ,4,1,0.,12.0,0.,12.0,0.,12.0,0.,12.0
1979-07-24 18:27:36.160 ,4,0,0.,12.0,0.,12.0,0.,12.0,0.,12.0
1979-07-24 18:27:48.160 ,4,0,0.,12.0,0.,12.0,0.,12.0,0.,12.0
1979-07-24 18:28:00.160 ,5,1,0.,12.0,0.,12.0,0.,12.0,0.,12.0
1979-07-24 18:28:12.160 ,5,1,0.,12.0,0.,12.0,0.,12.0,0.,12.0
1979-07-24 18:28:24.160 ,5,0,0.,12.0,0.,12.0,0.,12.0,0.,12.0
1979-07-24 18:28:36.160 ,5,0,1.,12.0,0.,12.0,0.,12.0,0.,12.0
1979-07-24 18:28:48.160 ,6,1,0.,12.0,0.,12.0,0.,12.0,0.,12.0
1979-07-24 18:29:00.160 ,6,1,0.,12.0,0.,12.0,0.,12.0,0.,12.0
1979-07-24 18:29:12.160 ,6,0,0.,12.0,0.,12.0,0.,12.0,0.,12.0
1979-07-24 18:29:24.160 ,6,0,0.,12.0,0.,12.0,0.,12.0,0.,12.0
1979-07-24 18:29:36.160 ,7,1,0.,12.0,0.,12.0,0.,12.0,0.,12.0
1979-07-24 18:29:48.160 ,7,1,0.,12.0,0.,12.0,0.,12.0,0.,12.0
1979-07-24 18:30:00.160 ,7,0,0.,12.0,0.,12.0,0.,12.0,0.,12.0
1979-07-24 18:30:12.160 ,7,0,0.,12.0,0.,12.0,0.,12.0,0.,12.0
1979-07-24 18:30:24.160 ,7,1,0.,12.0,0.,12.0,0.,12.0,1.,12.0
1979-07-24 18:30:36.160 ,7,1,0.,12.0,0.,12.0,0.,12.0,0.,12.0
1979-07-24 18:30:48.160 ,7,0,0.,12.0,0.,12.0,0.,12.0,0.,12.0
1979-07-24 18:31:00.160 ,7,0,0.,12.0,0.,12.0,0.,12.0,0.,12.0
1979-07-24 18:31:12.160 ,6,1,,0,,0,,0,,0
1979-07-24 18:31:24.160 ,6,1,0.,12.0,0.,12.0,0.,12.0,0.,12.0
1979-07-24 18:31:36.160 ,6,0,0.,12.0,0.,12.0,0.,12.0,0.,12.0
1979-07-24 18:31:48.160 ,6,0,0.,12.0,0.,12.0,0.,12.0,0.,12.0
1979-07-24 18:32:00.160 ,5,1,0.,12.0,0.,12.0,0.,12.0,0.,12.0
1979-07-24 18:32:12.160 ,5,1,0.,12.0,0.,12.0,0.,12.0,0.,12.0
1979-07-24 18:32:24.160 ,5,0,0.,12.0,0.,12.0,0.,12.0,0.,12.0
1979-07-24 18:32:36.160 ,5,0,0.,12.0,0.,12.0,0.,12.0,0.,12.0
1979-07-24 18:32:48.160 ,4,1,0.,12.0,0.,12.0,0.,12.0,0.,12.0
1979-07-24 18:33:00.160 ,4,1,0.,12.0,0.,12.0,0.,12.0,0.,12.0
1979-07-24 18:33:12.160 ,4,0,0.,12.0,0.,12.0,0.,12.0,0.,12.0
1979-07-24 18:33:24.160 ,4,0,0.,12.0,0.,12.0,0.,12.0,0.,12.0
1979-07-24 18:33:36.160 ,3,1,0.,12.0,0.,12.0,0.,12.0,0.,12.0
1979-07-24 18:33:48.160 ,3,1,0.,12.0,0.,12.0,0.,12.0,0.,12.0
1979-07-24 18:34:00.160 ,3,0,0.,12.0,0.,12.0,0.,12.0,0.,12.0
1979-07-24 18:34:12.160 ,3,0,0.,12.0,0.,12.0,0.,12.0,0.,12.0
1979-07-24 18:34:24.160 ,2,1,0.,12.0,0.,12.0,0.,12.0,0.,12.0
1979-07-24 18:34:36.160 ,2,1,0.,12.0,0.,12.0,0.,12.0,0.,12.0
1979-07-24 18:34:48.160 ,2,0,0.,12.0,0.,12.0,0.,12.0,0.,12.0
1979-07-24 18:35:00.160 ,2,0,0.,12.0,0.,12.0,0.,12.0,0.,12.0
1979-07-24 18:35:12.160 ,1,1,0.,12.0,0.,12.0,0.,12.0,0.,12.0
1979-07-24 18:35:24.160 ,1,1,0.,12.0,0.,12.0,0.,12.0,0.,12.0
1979-07-24 18:35:36.160 ,1,0,0.,12.0,0.,12.0,0.,12.0,0.,12.0
1979-07-24 18:35:48.160 ,1,0,0.,12.0,0.,12.0,0.,12.0,0.,12.0
1979-07-24 18:36:00.160 ,0,1,0.,12.0,0.,12.0,0.,12.0,0.,12.0
1979-07-24 18:36:12.160 ,0,1,0.,12.0,0.,12.0,0.,12.0,0.,12.0
1979-07-24 18:36:24.160 ,0,0,0.,12.0,0.,12.0,0.,12.0,1.,12.0
1979-07-24 18:36:36.160 ,0,0,0.,12.0,0.,12.0,0.,12.0,0.,12.0
1979-07-24 18:36:48.160 ,0,1,0.,12.0,0.,12.0,0.,12.0,0.,12.0
1979-07-24 18:37:00.160 ,0,1,0.,12.0,0.,12.0,0.,12.0,0.,12.0
1979-07-24 18:37:12.160 ,0,0,0.,12.0,0.,12.0,0.,12.0,0.,12.0
1979-07-24 18:37:24.160 ,0,0,0.,12.0,0.,12.0,0.,12.0,0.,12.0
1979-07-24 18:37:36.160 ,1,1,0.,12.0,0.,12.0,0.,12.0,0.,12.0
1979-07-24 18:37:48.160 ,1,1,0.,12.0,0.,12.0,0.,12.0,0.,12.0
1979-07-24 18:38:00.160 ,1,0,0.,12.0,0.,12.0,0.,12.0,0.,12.0
1979-07-24 18:38:12.160 ,1,0,0.,12.0,0.,12.0,0.,12.0,0.,12.0
1979-07-24 18:38:24.160 ,2,1,0.,12.0,0.,12.0,0.,12.0,0.,12.0
1979-07-24 18:38:36.160 ,2,1,0.,12.0,0.,12.0,0.,12.0,0.,12.0
1979-07-24 18:38:48.160 ,2,0,0.,12.0,0.,12.0,0.,12.0,0.,12.0
1979-07-24 18:39:00.160 ,2,0,0.,12.0,0.,12.0,0.,12.0,0.,12.0
1979-07-24 18:39:12.160 ,3,1,0.,12.0,0.,12.0,0.,12.0,0.,12.0
1979-07-24 18:39:24.160 ,3,1,0.,12.0,0.,12.0,0.,12.0,0.,12.0
1979-07-24 18:39:36.160 ,3,0,0.,12.0,0.,12.0,0.,12.0,0.,12.0
1979-07-24 18:39:48.160 ,3,0,0.,12.0,0.,12.0,0.,12.0,0.,12.0
1979-07-24 18:40:00.160 ,4,1,0.,12.0,0.,12.0,0.,12.0,0.,12.0
1979-07-24 18:40:12.160 ,4,1,0.,12.0,0.,12.0,0.,12.0,0.,12.0
1979-07-24 18:40:24.160 ,4,0,0.,12.0,0.,12.0,0.,12.0,0.,12.0
1979-07-24 18:40:36.160 ,4,0,0.,12.0,0.,12.0,0.,12.0,0.,12.0
1979-07-24 18:40:48.160 ,5,1,0.,12.0,0.,12.0,0.,12.0,0.,12.0
1979-07-24 18:41:00.160 ,5,1,0.,12.0,0.,12.0,0.,12.0,0.,12.0
1979-07-24 18:41:12.160 ,5,0,0.,12.0,0.,12.0,0.,12.0,0.,12.0
1979-07-24 18:41:24.160 ,5,0,0.,12.0,0.,12.0,0.,12.0,0.,12.0
1979-07-24 18:41:36.160 ,6,1,0.,12.0,0.,12.0,0.,12.0,0.,12.0
1979-07-24 18:41:48.160 ,6,1,0.,12.0,0.,12.0,0.,12.0,0.,12.0
1979-07-24 18:42:00.160 ,6,0,0.,12.0,0.,12.0,0.,12.0,0.,12.0
1979-07-24 18:42:12.160 ,6,0,0.,12.0,0.,12.0,0.,12.0,0.,12.0
1979-07-24 18:42:24.160 ,7,0,0.,12.0,0.,12.0,0.,12.0,0.,12.0
1979-07-24 18:42:36.160 ,7,0,0.,12.0,0.,12.0,0.,12.0,0.,12.0
1979-07-24 18:42:48.160 ,7,0,0.,12.0,0.,12.0,0.,12.0,0.,12.0
1979-07-24 18:43:00.160 ,7,0,0.,12.0,0.,12.0,0.,12.0,0.,12.0
1979-07-24 18:43:12.160 ,4,1,0.,12.0,0.,12.0,0.,12.0,0.,12.0
1979-07-24 18:43:24.160 ,4,1,0.,12.0,0.,12.0,0.,12.0,0.,12.0
1979-07-24 18:43:36.160 ,0,1,0.,12.0,0.,12.0,0.,12.0,0.,12.0
1979-07-24 18:43:48.160 ,0,1,0.,12.0,0.,12.0,0.,12.0,0.,12.0
1979-07-24 18:44:00.160 ,3,1,0.,12.0,0.,12.0,0.,12.0,0.,12.0
1979-07-24 18:44:12.160 ,3,1,0.,12.0,0.,12.0,0.,12.0,0.,12.0
1979-07-24 18:44:24.160 ,7,1,0.,12.0,0.,12.0,0.,12.0,0.,12.0
1979-07-24 18:44:36.160 ,7,1,0.,12.0,0.,12.0,0.,12.0,0.,12.0
1979-07-24 18:44:48.160 ,4,1,0.,12.0,0.,12.0,0.,12.0,0.,12.0
1979-07-24 18:45:00.160 ,4,1,0.,12.0,0.,12.0,0.,12.0,0.,12.0
1979-07-24 18:45:12.160 ,0,1,0.,12.0,0.,12.0,0.,12.0,0.,12.0
1979-07-24 18:45:24.160 ,0,1,0.,12.0,0.,12.0,0.,12.0,0.,12.0
1979-07-24 18:45:36.160 ,3,1,0.,12.0,0.,12.0,0.,12.0,0.,12.0
1979-07-24 18:45:48.160 ,3,1,0.,12.0,0.,12.0,0.,12.0,0.,12.0
1979-07-24 18:46:00.160 ,7,1,0.,12.0,0.,12.0,0.,12.0,0.,12.0
1979-07-24 18:46:12.160 ,7,1,0.,12.0,0.,12.0,0.,12.0,0.,12.0
1979-07-24 18:46:24.160 ,4,1,0.,12.0,0.,12.0,0.,12.0,0.,12.0
1979-07-24 18:46:36.160 ,4,1,0.,12.0,0.,12.0,0.,12.0,0.,12.0
1979-07-24 18:46:48.160 ,0,1,0.,12.0,0.,12.0,0.,12.0,0.,12.0
1979-07-24 18:47:00.160 ,0,1,0.,12.0,0.,12.0,0.,12.0,0.,12.0
1979-07-24 18:47:12.160 ,3,1,0.,12.0,0.,12.0,0.,12.0,0.,12.0
1979-07-24 18:47:24.160 ,3,1,0.,12.0,0.,12.0,0.,12.0,0.,12.0
1979-07-24 18:47:36.160 ,7,1,0.,12.0,0.,12.0,0.,12.0,0.,12.0
1979-07-24 18:47:48.160 ,7,1,0.,12.0,0.,12.0,0.,12.0,0.,12.0
1979-07-24 18:48:00.160 ,4,1,0.,12.0,0.,12.0,0.,12.0,0.,12.0
1979-07-24 18:48:12.160 ,4,1,0.,12.0,0.,12.0,0.,12.0,0.,12.0
1979-07-24 18:48:24.160 ,0,1,0.,12.0,0.,12.0,0.,12.0,0.,12.0
1979-07-24 18:48:36.160 ,0,1,0.,12.0,0.,12.0,0.,12.0,0.,12.0
1979-07-24 18:48:48.160 ,3,1,0.,12.0,0.,12.0,0.,12.0,0.,12.0
1979-07-24 18:49:00.160 ,3,1,0.,12.0,0.,12.0,0.,12.0,0.,12.0
1979-07-24 18:49:12.160 ,7,1,0.,12.0,0.,12.0,0.,12.0,0.,12.0
1979-07-24 18:49:24.160 ,7,1,0.,12.0,0.,12.0,0.,12.0,0.,12.0
1979-07-24 18:49:36.160 ,4,1,0.,12.0,0.,12.0,0.,12.0,0.,12.0
1979-07-24 18:49:48.160 ,4,1,0.,12.0,0.,12.0,0.,12.0,0.,12.0
1979-07-24 18:50:00.160 ,0,1,0.,12.0,0.,12.0,0.,12.0,0.,12.0
1979-07-24 18:50:12.160 ,0,1,0.,12.0,0.,12.0,0.,12.0,0.,12.0
1979-07-24 18:50:24.160 ,3,1,0.,12.0,0.,12.0,0.,12.0,0.,12.0
1979-07-24 18:50:36.160 ,3,1,0.,12.0,0.,12.0,0.,12.0,0.,12.0
1979-07-24 18:50:48.160 ,7,1,1.,12.0,0.,12.0,0.,12.0,0.,12.0
1979-07-24 18:51:00.160 ,7,1,0.,12.0,0.,12.0,0.,12.0,0.,12.0
1979-07-24 18:51:12.160 ,4,1,0.,12.0,0.,12.0,0.,12.0,0.,12.0
1979-07-24 18:51:24.160 ,4,1,0.,12.0,0.,12.0,0.,12.0,0.,12.0
1979-07-24 18:51:36.160 ,0,1,0.,12.0,0.,12.0,0.,12.0,0.,12.0
1979-07-24 18:51:48.160 ,0,1,0.,12.0,0.,12.0,0.,12.0,0.,12.0
1979-07-24 18:52:00.160 ,3,1,0.,12.0,0.,12.0,0.,12.0,0.,12.0
1979-07-24 18:52:12.160 ,3,1,0.,12.0,0.,12.0,0.,12.0,0.,12.0
1979-07-24 18:52:24.160 ,7,1,0.,12.0,0.,12.0,0.,12.0,0.,12.0
1979-07-24 18:52:36.160 ,7,1,0.,12.0,0.,12.0,0.,12.0,0.,12.0
1979-07-24 18:52:48.160 ,4,1,0.,12.0,0.,12.0,0.,12.0,0.,12.0
1979-07-24 18:53:00.160 ,4,1,0.,12.0,0.,12.0,0.,12.0,0.,12.0
1979-07-24 18:53:12.160 ,0,1,0.,12.0,0.,12.0,0.,12.0,0.,12.0
1979-07-24 18:53:24.160 ,0,1,0.,12.0,0.,12.0,0.,12.0,0.,12.0
1979-07-24 18:53:36.160 ,0,0,0.,12.0,0.,12.0,0.,12.0,0.,12.0
1979-07-24 18:53:48.160 ,0,0,0.,12.0,0.,12.0,0.,12.0,0.,12.0
1979-07-24 18:54:00.160 ,0,0,0.,12.0,0.,12.0,0.,12.0,0.,12.0
1979-07-24 18:54:12.160 ,0,0,0.,12.0,0.,12.0,0.,12.0,0.,12.0
1979-07-24 18:54:24.160 ,5,1,0.,12.0,0.,12.0,0.,12.0,0.,12.0
1979-07-24 18:54:36.160 ,5,1,0.,12.0,0.,12.0,0.,12.0,0.,12.0
1979-07-24 18:54:48.160 ,5,0,0.,12.0,0.,12.0,0.,12.0,0.,12.0
1979-07-24 18:55:00.160 ,5,0,0.,12.0,0.,12.0,0.,12.0,0.,12.0
1979-07-24 18:55:12.160 ,4,1,0.,12.0,0.,12.0,0.,12.0,0.,12.0
1979-07-24 18:55:24.160 ,4,1,0.,12.0,0.,12.0,0.,12.0,0.,12.0
1979-07-24 18:55:36.160 ,4,0,0.,12.0,0.,12.0,0.,12.0,0.,12.0
1979-07-24 18:55:48.160 ,4,0,0.,12.0,0.,12.0,0.,12.0,0.,12.0
1979-07-24 18:56:00.160 ,3,1,0.,12.0,0.,12.0,0.,12.0,0.,12.0
1979-07-24 18:56:12.160 ,3,1,0.,12.0,0.,12.0,0.,12.0,0.,12.0
1979-07-24 18:56:24.160 ,3,0,0.,12.0,0.,12.0,0.,12.0,0.,12.0
1979-07-24 18:56:36.160 ,3,0,0.,12.0,0.,12.0,0.,12.0,0.,12.0
1979-07-24 18:56:48.160 ,2,1,0.,12.0,0.,12.0,0.,12.0,0.,12.0
1979-07-24 18:57:00.160 ,2,1,0.,12.0,0.,12.0,0.,12.0,0.,12.0
1979-07-24 18:57:12.160 ,2,0,0.,12.0,0.,12.0,0.,12.0,0.,12.0
1979-07-24 18:57:24.160 ,2,0,0.,12.0,0.,12.0,0.,12.0,0.,12.0
1979-07-24 18:57:36.160 ,1,1,0.,12.0,0.,12.0,0.,12.0,0.,12.0
1979-07-24 18:57:48.160 ,1,1,0.,12.0,0.,12.0,0.,12.0,0.,12.0
1979-07-24 18:58:00.160 ,1,0,0.,12.0,0.,12.0,0.,12.0,0.,12.0
1979-07-24 18:58:12.160 ,1,0,0.,12.0,0.,12.0,0.,12.0,0.,12.0
1979-07-24 18:58:24.160 ,0,1,0.,12.0,0.,12.0,0.,12.0,0.,12.0
1979-07-24 18:58:36.160 ,0,1,0.,12.0,0.,12.0,0.,12.0,0.,12.0
1979-07-24 18:58:48.160 ,0,0,0.,12.0,0.,12.0,0.,12.0,0.,12.0
1979-07-24 18:59:00.160 ,0,0,0.,12.0,0.,12.0,0.,12.0,0.,12.0
1979-07-24 18:59:12.160 ,0,1,0.,12.0,0.,12.0,0.,12.0,0.,12.0
1979-07-24 18:59:24.160 ,0,1,0.,12.0,0.,12.0,0.,12.0,0.,12.0
1979-07-24 18:59:36.160 ,0,0,0.,12.0,0.,12.0,0.,12.0,0.,12.0
1979-07-24 18:59:48.160 ,0,0,0.,12.0,0.,12.0,0.,12.0,0.,12.0
1979-07-24 19:00:00.160 ,1,1,0.,12.0,0.,12.0,0.,12.0,0.,12.0
1979-07-24 19:00:12.160 ,1,1,0.,12.0,0.,12.0,0.,12.0,0.,12.0
1979-07-24 19:00:24.160 ,1,0,0.,12.0,0.,12.0,0.,12.0,0.,12.0
1979-07-24 19:00:36.160 ,1,0,0.,12.0,0.,12.0,0.,12.0,0.,12.0
1979-07-24 19:00:48.160 ,2,1,0.,12.0,0.,12.0,0.,12.0,0.,12.0
1979-07-24 19:01:00.160 ,2,1,0.,12.0,0.,12.0,0.,12.0,0.,12.0
1979-07-24 19:01:12.160 ,2,0,0.,12.0,0.,12.0,0.,12.0,0.,12.0
1979-07-24 19:01:24.160 ,2,0,0.,12.0,0.,12.0,0.,12.0,0.,12.0
1979-07-24 19:01:36.160 ,3,1,0.,12.0,0.,12.0,0.,12.0,0.,12.0
1979-07-24 19:01:48.160 ,3,1,0.,12.0,0.,12.0,0.,12.0,0.,12.0
1979-07-24 19:02:00.160 ,3,0,0.,12.0,0.,12.0,0.,12.0,0.,12.0
1979-07-24 19:02:12.160 ,3,0,0.,12.0,0.,12.0,0.,12.0,0.,12.0
1979-07-24 19:02:24.160 ,4,1,0.,12.0,0.,12.0,0.,12.0,0.,12.0
1979-07-24 19:02:36.160 ,4,1,0.,12.0,0.,12.0,0.,12.0,0.,12.0
1979-07-24 19:02:48.160 ,4,0,0.,12.0,0.,12.0,0.,12.0,0.,12.0
1979-07-24 19:03:00.160 ,4,0,0.,12.0,0.,12.0,0.,12.0,0.,12.0
1979-07-24 19:03:12.160 ,5,1,0.,12.0,0.,12.0,0.,12.0,0.,12.0
1979-07-24 19:03:24.160 ,5,1,0.,12.0,0.,12.0,0.,12.0,0.,12.0
1979-07-24 19:03:36.160 ,5,0,0.,12.0,0.,12.0,0.,12.0,0.,12.0
1979-07-24 19:03:48.160 ,5,0,0.,12.0,0.,12.0,0.,12.0,0.,12.0
1979-07-24 19:04:00.160 ,6,1,0.,12.0,0.,12.0,0.,12.0,0.,12.0
1979-07-24 19:04:12.160 ,6,1,0.,12.0,0.,12.0,0.,12.0,0.,12.0
1979-07-24 19:04:24.160 ,6,0,0.,12.0,0.,12.0,0.,12.0,0.,12.0
1979-07-24 19:04:36.160 ,6,0,0.,12.0,0.,12.0,0.,12.0,0.,12.0
1979-07-24 19:04:48.160 ,7,1,0.,12.0,0.,12.0,0.,12.0,0.,12.0
1979-07-24 19:05:00.160 ,7,1,0.,12.0,0.,12.0,0.,12.0,0.,12.0
1979-07-24 19:05:12.160 ,7,0,0.,12.0,0.,12.0,0.,12.0,0.,12.0
1979-07-24 19:05:24.160 ,7,0,0.,12.0,0.,12.0,0.,12.0,0.,12.0
1979-07-24 19:05:36.160 ,7,1,0.,12.0,0.,12.0,0.,12.0,0.,12.0
1979-07-24 19:05:48.160 ,7,1,0.,12.0,0.,12.0,0.,12.0,0.,12.0
1979-07-24 19:06:00.160 ,7,0,0.,12.0,0.,12.0,0.,12.0,0.,12.0
1979-07-24 19:06:12.160 ,7,0,0.,12.0,0.,12.0,0.,12.0,0.,12.0
1979-07-24 19:06:24.160 ,6,1,0.,12.0,0.,12.0,0.,12.0,0.,12.0
1979-07-24 19:06:36.160 ,6,1,0.,12.0,0.,12.0,0.,12.0,0.,12.0
1979-07-24 19:06:48.160 ,6,0,0.,12.0,0.,12.0,0.,12.0,0.,12.0
1979-07-24 19:07:00.160 ,6,0,0.,12.0,0.,12.0,0.,12.0,0.,12.0
1979-07-24 19:07:12.160 ,5,1,0.,12.0,0.,12.0,0.,12.0,0.,12.0
1979-07-24 19:07:24.160 ,5,1,0.,12.0,0.,12.0,0.,12.0,0.,12.0
1979-07-24 19:07:36.160 ,5,0,0.,12.0,0.,12.0,0.,12.0,0.,12.0
1979-07-24 19:07:48.160 ,5,0,0.,12.0,0.,12.0,0.,12.0,0.,12.0
1979-07-24 19:08:00.160 ,4,1,0.,12.0,0.,12.0,0.,12.0,0.,12.0
1979-07-24 19:08:12.160 ,4,1,0.,12.0,0.,12.0,0.,12.0,0.,12.0
1979-07-24 19:08:24.160 ,4,0,0.,12.0,0.,12.0,0.,12.0,0.,12.0
1979-07-24 19:08:36.160 ,4,0,0.,12.0,0.,12.0,0.,12.0,0.,12.0
1979-07-24 19:08:48.160 ,3,1,0.,12.0,0.,12.0,0.,12.0,0.,12.0
1979-07-24 19:09:00.160 ,3,1,0.,12.0,0.,12.0,0.,12.0,0.,12.0
1979-07-24 19:09:12.160 ,3,0,0.,12.0,0.,12.0,0.,12.0,0.,12.0
1979-07-24 19:09:24.160 ,3,0,0.,12.0,0.,12.0,0.,12.0,0.,12.0
1979-07-24 19:09:36.160 ,2,1,0.,12.0,0.,12.0,0.,12.0,0.,12.0
1979-07-24 19:09:48.160 ,2,1,0.,12.0,0.,12.0,0.,12.0,0.,12.0
1979-07-24 19:10:00.160 ,2,0,0.,12.0,0.,12.0,0.,12.0,0.,12.0
1979-07-24 19:10:12.160 ,2,0,1.,12.0,0.,12.0,0.,12.0,0.,12.0
1979-07-24 19:10:24.160 ,1,1,0.,12.0,0.,12.0,0.,12.0,0.,12.0
1979-07-24 19:10:36.160 ,1,1,0.,12.0,0.,12.0,0.,12.0,0.,12.0
1979-07-24 19:10:48.160 ,1,0,0.,12.0,0.,12.0,0.,12.0,0.,12.0
1979-07-24 19:11:00.160 ,1,0,0.,12.0,0.,12.0,0.,12.0,0.,12.0
1979-07-24 19:11:12.160 ,0,1,0.,12.0,0.,12.0,0.,12.0,0.,12.0
1979-07-24 19:11:24.160 ,0,1,0.,12.0,0.,12.0,0.,12.0,0.,12.0
1979-07-24 19:11:36.160 ,0,0,0.,12.0,0.,12.0,0.,12.0,0.,12.0
1979-07-24 19:11:48.160 ,0,0,0.,12.0,0.,12.0,0.,12.0,0.,12.0
1979-07-24 19:12:00.160 ,0,1,0.,12.0,0.,12.0,0.,12.0,0.,12.0
1979-07-24 19:12:12.160 ,0,1,0.,12.0,0.,12.0,0.,12.0,0.,12.0
1979-07-24 19:12:24.160 ,0,0,0.,12.0,0.,12.0,0.,12.0,0.,12.0
1979-07-24 19:12:36.160 ,0,0,0.,12.0,0.,12.0,0.,12.0,0.,12.0
1979-07-24 19:12:48.160 ,1,1,0.,12.0,0.,12.0,0.,12.0,0.,12.0
1979-07-24 19:13:00.160 ,1,1,0.,12.0,0.,12.0,0.,12.0,0.,12.0
1979-07-24 19:13:12.160 ,1,0,0.,12.0,0.,12.0,0.,12.0,0.,12.0
1979-07-24 19:13:24.160 ,1,0,0.,12.0,0.,12.0,0.,12.0,0.,12.0
1979-07-24 19:13:36.160 ,2,1,0.,12.0,0.,12.0,0.,12.0,0.,12.0
1979-07-24 19:13:48.160 ,2,1,0.,12.0,0.,12.0,0.,12.0,0.,12.0
1979-07-24 19:14:00.160 ,2,0,0.,12.0,0.,12.0,0.,12.0,0.,12.0
1979-07-24 19:14:12.160 ,2,0,0.,12.0,0.,12.0,0.,12.0,0.,12.0
1979-07-24 19:14:24.160 ,3,1,0.,12.0,0.,12.0,0.,12.0,0.,12.0
1979-07-24 19:14:36.160 ,3,1,0.,12.0,0.,12.0,0.,12.0,0.,12.0
1979-07-24 19:14:48.160 ,3,0,0.,12.0,0.,12.0,0.,12.0,0.,12.0
1979-07-24 19:15:00.160 ,3,0,0.,12.0,0.,12.0,0.,12.0,0.,12.0
1979-07-24 19:15:12.160 ,4,1,0.,12.0,0.,12.0,0.,12.0,0.,12.0
1979-07-24 19:15:24.160 ,4,1,0.,12.0,0.,12.0,0.,12.0,0.,12.0
1979-07-24 19:15:36.160 ,4,0,0.,12.0,0.,12.0,0.,12.0,0.,12.0
1979-07-24 19:15:48.160 ,4,0,0.,12.0,0.,12.0,0.,12.0,0.,12.0
1979-07-24 19:16:00.160 ,5,1,0.,12.0,0.,12.0,0.,12.0,0.,12.0
1979-07-24 19:16:12.160 ,5,1,0.,12.0,0.,12.0,0.,12.0,0.,12.0
1979-07-24 19:16:24.160 ,5,0,0.,12.0,0.,12.0,0.,12.0,0.,12.0
1979-07-24 19:16:36.160 ,5,0,0.,12.0,0.,12.0,0.,12.0,0.,12.0
1979-07-24 19:16:48.160 ,6,1,0.,12.0,0.,12.0,0.,12.0,0.,12.0
1979-07-24 19:17:00.160 ,6,1,0.,12.0,0.,12.0,0.,12.0,0.,12.0
1979-07-24 19:17:12.160 ,6,0,0.,12.0,0.,12.0,0.,12.0,0.,12.0
1979-07-24 19:17:24.160 ,6,0,0.,12.0,0.,12.0,0.,12.0,0.,12.0